EW7535 Weather Reports


Display with metric or nautical units.
time (UTC)temp
F
wind
direction
speed
MPH
gust
MPH
rain 1hr
in
rain 24hr
in
rain mn
in
humidity
%
barometer
mb
20260503200038 86 136 2.0 7.0 0.00 0.00 0.00 25 1006.6
20260503194540 85 120 3.0 7.0 0.00 0.00 0.00 26 1006.8
20260503193029 85 108 3.0 8.0 0.00 0.00 0.00 28 1007.1
20260503191525 83 91 3.0 12.0 0.00 0.00 0.00 30 1007.2
20260503190036 83 124 5.0 11.0 0.00 0.00 0.00 30 1007.3
20260503184520 82 131 5.0 12.0 0.00 0.00 0.00 31 1007.7
20260503183016 82 129 3.0 8.0 0.00 0.00 0.00 31 1007.9
20260503181531 82 157 3.0 9.0 0.00 0.00 0.00 31 1008.2
20260503180024 82 131 2.0 12.0 0.00 0.00 0.00 32 1008.5
20260503174513 82 124 3.0 11.0 0.00 0.00 0.00 31 1008.6
20260503173008 82 124 2.0 6.0 0.00 0.00 0.00 31 1008.8
20260503171510 81 125 4.0 9.0 0.00 0.00 0.00 32 1008.9
20260503081534 74 122 0.0 5.0 0.00 0.00 0.00 35 1008.4
20260503071525 75 131 0.0 0.0 0.00 0.00 0.00 34 1008.7
20260503054518 78 78 3.0 10.0 0.00 0.00 0.00 30 1007.7
20260503053018 79 95 4.0 11.0 0.00 0.00 0.00 30 1007.8
20260503051513 79 124 2.0 11.0 0.00 0.00 0.00 30 1008.0
20260503050013 79 94 4.0 9.0 0.00 0.00 0.00 29 1008.0
20260503044559 79 73 3.0 9.0 0.00 0.00 0.00 29 1007.9
20260503043043 79 98 3.0 11.0 0.00 0.00 0.00 29 1007.7
20260503041511 79 190 3.0 8.0 0.00 0.00 0.00 28 1007.3
20260503040023 80 82 3.0 11.0 0.00 0.00 0.00 28 1007.1
20260503034510 80 90 3.0 13.0 0.00 0.00 0.00 27 1007.0
20260503033007 80 93 2.0 8.0 0.00 0.00 0.00 27 1007.0
20260503031507 81 126 1.0 10.0 0.00 0.00 0.00 26 1006.9
20260503030006 81 101 3.0 8.0 0.00 0.00 0.00 26 1006.8
20260503024503 81 82 3.0 11.0 0.00 0.00 0.00 25 1006.6
20260503023003 82 76 4.0 12.0 0.00 0.00 0.00 25 1006.5
20260503021502 82 116 2.0 8.0 0.00 0.00 0.00 23 1006.4
20260503020110 83 120 2.0 9.0 0.00 0.00 0.00 22 1006.4
20260503014559 84 95 3.0 8.0 0.00 0.00 0.00 21 1006.5
20260503013058 84 91 0.0 4.0 0.00 0.00 0.00 21 1006.5
20260503011605 85 125 0.0 4.0 0.00 0.00 0.00 21 1006.6
20260503010100 86 101 0.0 2.0 0.00 0.00 0.00 20 1006.7
20260503004601 86 124 0.0 6.0 0.00 0.00 0.00 19 1006.5
20260503003100 88 110 0.0 6.0 0.00 0.00 0.00 18 1006.5
20260503001551 90 213 0.0 5.0 0.00 0.00 0.00 17 1006.6
20260503000048 91 134 0.0 3.0 0.00 0.00 0.00 17 1006.6
20260502234552 90 287 2.0 4.0 0.00 0.00 0.00 17 1006.7
20260502233015 91 225 0.0 4.0 0.00 0.00 0.00 19 1006.8
20260502231515 91 232 0.0 4.0 0.00 0.00 0.00 17 1006.9
20260502230009 90 301 0.0 6.0 0.00 0.00 0.00 15 1007.0
20260502224511 92 282 3.0 8.0 0.00 0.00 0.00 14 1007.2
20260502223006 92 284 1.0 5.0 0.00 0.00 0.00 13 1007.3
20260502221504 93 217 1.0 7.0 0.00 0.00 0.00 14 1007.5
20260502220045 94 256 2.0 5.0 0.00 0.00 0.00 12 1007.7
20260502214529 94 212 0.0 6.0 0.00 0.00 0.00 13 1008.0
20260502213103 92 226 1.0 4.0 0.00 0.00 0.00 13 1008.2
20260502211555 93 260 0.0 4.0 0.00 0.00 0.00 11 1008.4
20260502210023 92 286 0.0 6.0 0.00 0.00 0.00 13 1008.5
20260502204519 92 268 0.0 8.0 0.00 0.00 0.00 16 1008.9
20260502203013 91 122 1.0 10.0 0.00 0.00 0.00 17 1009.0
20260502201512 92 254 1.0 5.0 0.00 0.00 0.00 16 1009.2